Regional Weather Roundup
Issued by NWS

Home | Current Version | Previous Version | Text Only | Print | Product List | Glossary Off
Versions: 1 2 3 4 5 6 7 8 9 10 11 12 13 14 15 16 17 18 19 20 21 22 23 24 25 26 27 28 29 30 31 32 33 34 35 36 37 38 39 40 41 42 43 44 45 46 47 48 49 50

000
ASUS45 KABQ 230210
RWRNM
WEATHER ROUNDUP FOR NEW MEXICO
NATIONAL WEATHER SERVICE ALBUQUERQUE NM
800 PM MDT TUE JUL 22 2014

NOTE: "FAIR" MEANS FEW OR NO CLOUDS BELOW 12,000 FEET AGL WITH NO
       SIGNIFICANT WEATHER OR OBSTRUCTIONS TO VISION.

      THIS PRODUCT IS RELEASED AS TWO VERSIONS.  ONE VERSION NEAR
      THE TOP OF THE HOUR CONTAINING PRELIMINARY DATA FROM ALBUQUERQUE
      AND OTHER STATIONS.  A FINAL VERSION WITH ADDITIONAL DATA IS
      ISSUED ABOUT 10 MINUTES AFTER THE HOUR.

NMZ501-503-504-510>518-230300-
NORTHWEST PLATEAU/NORTHCENTRAL MOUNTAINS

CITY           SKY/WX    TMP DP  RH WIND       PRES   REMARKS
FARMINGTON     FAIR      91  25   9 W6        30.18R
LOS ALAMOS     MOCLDY    75  47  36 S8        30.46R
SANTA FE       FAIR      75  52  44 E12       30.38R
TAOS           FAIR      72  52  49 NE5       30.45R
ANGEL FIRE     FAIR      71  49  47 E3        30.57R

$$
NMZ402-403-502-505>509-230300-
WESTCENTRAL MOUNTAINS/SOUTHWEST MOUNTAINS

CITY           SKY/WX    TMP DP  RH WIND       PRES   REMARKS
GALLUP         FAIR      85  33  15 SW10      30.31R
GRANTS         MOCLDY    73  49  41 S13       30.36F
SILVER CITY    CLOUDY    81  52  36 E13       30.32R

$$
NMZ407-409-411-412-230300-
SOUTHERN DESERTS

CITY           SKY/WX    TMP DP  RH WIND       PRES   REMARKS
LORDSBURG      FAIR      88  46  23 NE15G24   30.11S
DEMING         LGT RAIN  74  66  76 E7        30.23R
LAS CRUCES     FAIR      84  54  35 SW5       30.22R THUNDER
HOLLOMAN AFB   MOCLDY    89  50  26 SW6       30.16R
ALAMOGORDO     FAIR      81  55  41 SE6       30.19R
T OR C         CLOUDY    81  58  45 SW13      30.25R

$$
NMZ519>523-230300-
CENTRAL VALLEYS/CENTRAL HIGHLANDS

CITY           SKY/WX    TMP DP  RH WIND       PRES   REMARKS
ALBUQUERQUE    MOCLDY    85  46  25 E18       30.27R
DOUBLE EAGLE   MOCLDY    81  48  32 SE17      30.33R
MORIARTY ARPT  TSTM      66  53  62 N8G22     30.40R
CLINES CORNERS FAIR      70  52  52 NE6       30.45R
BELEN          MOCLDY    83  48  29 S21       30.28R
SOCORRO        MOCLDY    85  47  27 SE9       30.26S

$$
NMZ524>526-539-540-230300-
SOUTHCENTRAL MOUNTAINS

CITY           SKY/WX    TMP DP  RH WIND       PRES   REMARKS
RUIDOSO        FAIR      64  59  82 MISG      30.45R

$$
NMZ527>531-230300-
NORTHEAST HIGHLANDS/NORTHEAST PLAINS

CITY           SKY/WX    TMP DP  RH WIND       PRES   REMARKS
LAS VEGAS      FAIR      67  56  67 E6        30.43S
RATON          FAIR      84  42  22 E13       30.37R
CLAYTON        FAIR      84  61  45 SE14      30.29R

$$
NMZ532>537-230300-
EASTCENTRAL PLAINS

CITY           SKY/WX    TMP DP  RH WIND       PRES   REMARKS
TUCUMCARI      MOCLDY    86  63  45 E7        30.20R
CANNON AFB     FAIR      77  65  65 E5        30.27R
CLOVIS AIRPORT NOT AVBL

$$
NMZ028-029-538-230300-
SOUTHEAST PLAINS

CITY           SKY/WX    TMP DP  RH WIND       PRES   REMARKS
ROSWELL        FAIR      87  60  40 W6        30.15R
ARTESIA        FAIR      86  59  39 NW10      30.13R
CARLSBAD       FAIR      94  50  22 E8        30.09R
HOBBS          FAIR      86  57  37 E14       30.16R


$$



USA.gov is the U.S. government's official web portal to all federal, state and local government web resources and services.